Location: C�mpuri de-Sus
(45.9500°N, 22.5500°E)
Time: 01:46:32
(UTC+00:00)

Cosmos 839 Rocket - Pass Details

Date: 29 May 2022
Orbit: 968 x 2085 km, 65.9° (Epoch: 06 July)

Event Time Altitude Azimuth Distance (km) Brightness Sun altitude
Rises 00:32:01 0° 312° (NW) 3,757 7.2 -16.8°
Reaches altitude 10° 00:35:13 10° 296° (WNW) 2,893 6.4 -16.5°
Maximum altitude 00:39:48 20° 252° (WSW) 2,416 5.6 -16.1°
Enters shadow 00:41:12 19° 237° (WSW) 2,531 5.6 -15.9°
